Stations météo

Publicité
Ouessant, France (7100): Température de l'air & dewpoint: 19.05.2018 13:00:00 - 25.05.2018 13:00:00 (CEST)Ouessant, France (7100): Vitesse du vent & gusts: 19.05.2018 13:00:00 - 25.05.2018 13:00:00 (CEST)Ouessant, France (7100): Direction du vent: 19.05.2018 13:00:00 - 25.05.2018 13:00:00 (CEST)Ouessant, France (7100): reduced air pressure: 19.05.2018 13:00:00 - 25.05.2018 13:00:00 (CEST)Ouessant, France (7100): visibility: 19.05.2018 13:00:00 - 25.05.2018 13:00:00 (CEST)Ouessant, France (7100): Quantités de précipitations: 19.05.2018 13:00:00 - 25.05.2018 13:00:00 (CEST)
Date & Time tt [°C] td [°C] ff [km/h] ff [knt] fx [km/h] fx [knt] dd ppp [hPa] vv [km] rr [mm]
25.05.2018 13:00:00 - - - - - - - - - -
25.05.2018 12:00:00 13,3 12,7 19 10 29 15 N 1018,0 - 0,0
25.05.2018 11:00:00 13,1 12,5 18 10 25 13 NNE 1018,1 0,1 0,0
25.05.2018 10:00:00 13,1 12,8 15 8 24 13 N 1018,0 - 0,0
25.05.2018 09:00:00 12,4 12,1 16 8 24 13 N 1018,2 - 0,0
25.05.2018 08:00:00 12,3 12,0 15 8 21 12 N 1018,2 0,1 0,0
25.05.2018 07:00:00 12,0 11,7 11 6 21 11 N 1018,0 - 0,0
25.05.2018 06:00:00 11,9 11,4 10 5 20 11 N 1017,9 - 0,0
25.05.2018 05:00:00 11,9 11,4 13 7 22 12 N 1018,1 5 0,0
25.05.2018 04:00:00 12,0 11,5 13 7 20 11 NNE 1018,2 - 0,0
25.05.2018 03:00:00 12,1 11,6 13 7 21 11 NNE 1018,3 - 0,0
25.05.2018 02:00:00 12,1 11,6 15 8 22 12 N 1018,4 2,0 0,0
25.05.2018 01:00:00 12,0 11,5 16 8 26 14 NNE 1018,7 - 0,0
25.05.2018 00:00:00 11,9 11,3 20 11 33 18 NE 1018,8 - 0,0
24.05.2018 23:00:00 11,9 11,3 19 11 27 15 NNE 1018,9 2,0 0,0
24.05.2018 22:00:00 12,1 11,3 18 10 29 16 N 1018,4 - 0,0
24.05.2018 21:00:00 12,5 11,6 20 11 34 18 N 1018,3 - 0,0
24.05.2018 20:00:00 13,5 12,1 18 10 29 16 NNE 1018,1 4,0 0,0
24.05.2018 19:00:00 14,1 12,0 20 11 27 15 N 1017,9 - 0,0
24.05.2018 18:00:00 14,7 12,2 16 9 25 14 N 1018,0 - 0,0
24.05.2018 17:00:00 14,9 12,2 17 9 27 14 N 1018,2 4,0 0,0
24.05.2018 16:00:00 15,0 12,5 16 8 24 13 N 1018,3 - 0,0
24.05.2018 15:00:00 14,7 12,4 19 10 29 15 N 1018,4 - 0,0
24.05.2018 14:00:00 15,1 12,0 14 7 25 13 N 1018,6 4,0 0,0
24.05.2018 13:00:00 15,1 12,6 13 7 21 11 NNE 1018,8 - 0,0
24.05.2018 12:00:00 15,7 12,6 14 8 22 12 NE 1018,9 - 0,0
24.05.2018 11:00:00 15,1 12,2 15 8 26 14 NE 1018,9 4,0 0,0
24.05.2018 10:00:00 14,1 12,1 16 9 25 14 NE 1018,9 - 0,0
24.05.2018 09:00:00 13,1 11,8 15 8 34 18 NE 1018,9 - 0,0
24.05.2018 08:00:00 12,4 11,5 27 15 45 24 ENE 1019,0 6 0,0
24.05.2018 07:00:00 11,9 11,1 21 12 31 17 NE 1018,6 - 0,0
24.05.2018 06:00:00 11,8 10,9 22 12 34 19 NE 1018,7 - 0,0
24.05.2018 05:00:00 11,8 10,9 26 14 37 20 NNE 1019,0 - 0,0
24.05.2018 04:00:00 11,8 10,9 29 15 40 22 N 1019,0 - 0,0
24.05.2018 03:00:00 11,7 10,8 22 12 34 18 N 1019,5 - 0,0
24.05.2018 02:00:00 11,6 10,7 18 10 26 14 NNE 1019,6 8 0,0
24.05.2018 01:00:00 11,8 10,4 17 9 29 16 NE 1020,2 - 0,0
24.05.2018 00:00:00 11,8 10,5 24 13 31 17 ENE 1020,4 - 0,0
23.05.2018 23:00:00 12,4 10,3 29 16 38 20 ENE 1020,4 6 0,0
23.05.2018 22:00:00 12,3 10,5 31 17 41 22 ENE 1019,8 - 0,0
23.05.2018 21:00:00 12,7 10,6 29 15 46 25 NE 1019,9 - 0,0
23.05.2018 20:00:00 13,9 11,1 28 15 46 25 NE 1019,7 5 0,0
23.05.2018 19:00:00 14,8 11,2 26 14 41 22 NE 1019,6 - 0,0
23.05.2018 18:00:00 15,0 11,2 31 17 43 23 NNE 1019,7 - 0,0
23.05.2018 17:00:00 15,8 11,8 29 16 41 22 NNE 1020,0 5 0,0
23.05.2018 16:00:00 16,1 12,1 27 15 40 22 NE 1020,3 - 0,0
23.05.2018 15:00:00 15,8 12,2 27 15 37 20 NNE 1020,4 - 0,0
23.05.2018 14:00:00 15,6 12,2 26 14 35 19 NNE 1020,7 4,5 0,0
23.05.2018 13:00:00 15,6 12,0 23 12 32 17 NNE 1020,7 - 0,0
23.05.2018 12:00:00 15,4 12,5 18 10 36 19 NNE 1020,6 - 0,0
23.05.2018 11:00:00 14,7 12,2 21 11 33 18 NE 1020,6 5 0,0
23.05.2018 10:00:00 13,7 11,7 22 12 34 18 ENE 1020,6 - 0,0
23.05.2018 09:00:00 13,2 12,1 20 11 29 16 NE 1020,4 - 0,0
23.05.2018 08:00:00 12,4 11,6 20 11 27 15 NNE 1019,9 8 0,0
23.05.2018 07:00:00 12,2 11,6 14 7 24 13 N 1019,5 - 0,0
23.05.2018 06:00:00 11,7 11,1 13 7 28 15 N 1019,3 - 0,2
23.05.2018 05:00:00 11,9 11,3 21 11 29 16 N 1019,4 8 0,0
23.05.2018 04:00:00 11,9 11,3 19 10 27 15 NNW 1019,6 - 0,0
23.05.2018 03:00:00 11,7 11,1 16 8 21 11 NNW 1019,9 - 0,0
23.05.2018 02:00:00 11,7 11,1 15 8 22 12 NNW 1020,0 8 0,0
23.05.2018 01:00:00 11,9 11,3 15 8 22 12 NNW 1019,9 - 0,0
23.05.2018 00:00:00 12,0 11,2 14 7 29 16 N 1019,9 - 0,0
22.05.2018 23:00:00 12,3 11,7 19 11 27 15 N 1019,7 4,0 0,0
22.05.2018 22:00:00 12,4 11,5 13 7 26 14 N 1018,9 - 0,0
22.05.2018 21:00:00 13,3 11,9 14 8 23 13 N 1018,5 - 0,0
22.05.2018 20:00:00 14,0 11,7 15 8 24 13 N 1018,4 8 0,0
22.05.2018 19:00:00 14,6 11,9 14 8 26 14 N 1018,3 - 0,0
22.05.2018 18:00:00 15,0 12,3 15 8 24 13 N 1018,1 - 0,0
22.05.2018 17:00:00 16,0 12,4 16 9 26 14 NNE 1017,8 8 0,0
22.05.2018 16:00:00 15,0 12,3 15 8 27 15 N 1018,1 - 0,0
22.05.2018 15:00:00 14,9 12,2 14 8 36 19 N 1017,9 - 0,0
22.05.2018 14:00:00 14,8 12,7 14 8 23 12 N 1017,8 8 0,0
22.05.2018 13:00:00 13,8 12,0 14 8 22 12 N 1017,6 - 0,0
22.05.2018 12:00:00 14,0 12,0 16 9 24 13 N 1017,2 - 0,0
22.05.2018 11:00:00 13,8 12,2 15 8 24 13 N 1017,1 - 0,0
22.05.2018 10:00:00 12,6 11,5 13 7 18 10 N 1017,2 - 0,0
22.05.2018 09:00:00 12,4 11,1 15 8 22 12 N 1016,7 - 0,0
22.05.2018 08:00:00 12,1 11,0 17 9 26 14 N 1016,2 10 0,0
22.05.2018 07:00:00 12,0 10,9 16 9 26 14 NNE 1015,7 - 0,0
22.05.2018 06:00:00 11,8 10,9 17 9 26 14 N 1015,4 - 0,0
22.05.2018 05:00:00 11,6 10,7 16 8 23 12 N 1015,4 - 0,0
22.05.2018 04:00:00 11,7 10,4 15 8 24 13 N 1015,4 - 0,0
22.05.2018 03:00:00 12,0 10,6 16 9 23 12 N 1015,5 - 0,0
22.05.2018 02:00:00 12,1 10,3 19 10 28 15 N 1015,5 - 0,0
22.05.2018 01:00:00 12,1 9,7 20 11 34 19 N 1015,6 - 0,0
22.05.2018 00:00:00 12,3 9,8 21 11 35 19 N 1015,7 - 0,0
21.05.2018 23:00:00 12,2 9,8 27 14 42 23 N 1015,7 6 0,0
21.05.2018 22:00:00 12,0 10,4 26 14 36 19 N 1015,2 - 0,0
21.05.2018 21:00:00 13,0 10,5 22 12 31 17 NNE 1014,6 - 0,0
21.05.2018 20:00:00 14,4 10,4 22 12 34 18 NE 1014,2 5 0,0
21.05.2018 19:00:00 15,1 11,1 24 13 37 20 NE 1014,0 - 0,0
21.05.2018 18:00:00 14,9 11,3 28 15 42 23 NE 1013,7 - 0,0
21.05.2018 17:00:00 15,6 11,4 27 15 40 22 NE 1013,7 4,0 0,0
21.05.2018 16:00:00 15,3 12,2 24 13 34 18 NNE 1013,8 - 0,0
21.05.2018 15:00:00 14,6 12,5 20 11 28 15 N 1014,0 - 0,0
21.05.2018 14:00:00 13,8 12,4 21 11 29 15 NNE 1013,9 - 0,0
21.05.2018 13:00:00 13,4 12,5 19 11 27 14 NNE 1014,3 - 0,2
21.05.2018 12:00:00 12,7 12,2 19 10 27 15 NNE 1014,2 - 0,0
21.05.2018 11:00:00 11,7 11,4 18 10 27 15 NE 1014,2 0,1 0,0
21.05.2018 10:00:00 11,4 11,1 16 8 28 15 ENE 1014,5 - 0,0
21.05.2018 09:00:00 11,3 11,0 18 10 35 19 ENE 1014,4 - 0,0
21.05.2018 08:00:00 10,8 10,5 24 13 32 17 ENE 1014,3 0,1 0,0
21.05.2018 07:00:00 10,8 10,5 20 11 31 17 ENE 1014,3 - 0,0
21.05.2018 06:00:00 10,6 10,3 17 9 24 13 NE 1014,4 - 0,0
21.05.2018 05:00:00 10,5 10,2 17 9 26 14 NE 1014,7 0,1 0,0
21.05.2018 04:00:00 10,7 10,4 19 10 26 14 NE 1015,1 - 0,0
21.05.2018 03:00:00 10,9 10,4 23 12 32 17 ENE 1015,9 - 0,0
21.05.2018 02:00:00 11,0 10,5 25 13 32 17 NE 1016,3 - 0,2
21.05.2018 01:00:00 10,9 10,4 21 11 30 16 NE 1016,8 - 0,0
21.05.2018 00:00:00 10,9 10,4 22 12 31 17 NE 1017,0 - 0,0
20.05.2018 23:00:00 10,9 10,4 18 10 28 15 NNE 1017,4 - 0,0
20.05.2018 22:00:00 10,0 9,5 23 12 32 18 NNE 1017,4 - 0,0
20.05.2018 21:00:00 10,1 9,5 22 12 31 17 NNE 1017,3 - 0,0
20.05.2018 20:00:00 10,8 9,6 22 12 28 15 NNE 1017,4 0,1 0,0
20.05.2018 19:00:00 13,4 10,6 18 10 25 13 NNE 1017,7 - 0,0
20.05.2018 18:00:00 13,8 10,8 14 7 26 14 NE 1018,0 - 0,0
20.05.2018 17:00:00 14,7 11,5 18 10 27 14 NNE 1018,5 4,0 0,0
20.05.2018 16:00:00 15,4 11,8 16 8 25 14 NNE 1019,3 - 0,0
20.05.2018 15:00:00 14,9 11,7 15 8 24 13 NNE 1019,6 - 0,0
20.05.2018 14:00:00 14,8 11,8 16 9 24 13 NNE 1020,2 18 0,0
20.05.2018 13:00:00 14,6 11,0 14 8 20 11 NNE 1020,4 - 0,0
20.05.2018 12:00:00 14,3 9,3 10 5 16 9 NNE 1020,6 - 0,0
20.05.2018 11:00:00 15,2 8,2 7 4 15 8 E 1020,6 22 0,0
20.05.2018 10:00:00 13,6 7,6 7 4 14 8 NE 1020,8 - 0,0
20.05.2018 09:00:00 12,2 9,0 10 5 16 9 E 1020,8 - 0,0
20.05.2018 08:00:00 10,4 9,0 9 5 13 7 E 1020,7 - 0,0
20.05.2018 07:00:00 9,7 8,1 10 5 12 6 ENE 1020,6 - 0,0
20.05.2018 06:00:00 10,1 8,5 10 5 11 6 ENE 1020,7 - 0,0
20.05.2018 05:00:00 9,7 7,8 9 5 16 8 E 1020,9 - 0,0
20.05.2018 04:00:00 10,5 8,6 13 7 17 9 ESE 1021,0 - 0,0
20.05.2018 03:00:00 10,5 9,1 13 7 16 9 ESE 1021,4 - 0,0
20.05.2018 02:00:00 10,5 8,8 14 7 19 11 E 1021,8 18 0,0
20.05.2018 01:00:00 10,5 8,8 13 7 25 14 E 1021,8 - 0,0
20.05.2018 00:00:00 11,1 9,0 23 12 35 19 ENE 1022,0 - 0,0
19.05.2018 23:00:00 11,4 9,0 24 13 36 19 ENE 1021,8 - 0,0
19.05.2018 22:00:00 11,5 8,9 23 12 32 17 NE 1021,6 - 0,0
19.05.2018 21:00:00 12,7 8,8 24 13 34 19 NE 1021,4 - 0,0
19.05.2018 20:00:00 14,1 9,3 19 11 32 17 NE 1021,5 20 0,0
19.05.2018 19:00:00 15,0 9,6 21 12 36 19 NE 1021,6 - 0,0
19.05.2018 18:00:00 15,7 10,2 21 12 32 17 NE 1021,8 - 0,0
19.05.2018 17:00:00 16,0 10,7 19 11 29 16 NNE 1022,2 20 0,0
19.05.2018 16:00:00 15,9 10,9 20 11 31 17 NE 1022,5 - 0,0
19.05.2018 15:00:00 16,5 10,8 20 11 29 16 NE 1022,7 - 0,0
19.05.2018 14:00:00 15,6 10,6 17 9 27 15 NNE 1023,1 20 0,0
19.05.2018 13:00:00 15,3 11,3 17 9 25 14 NNE 1023,3 - 0,0

tt = Température de l'air
td = dewpoint
ff = Vitesse du vent
fx = gusts
dd = Direction du vent
ppp = reduced air pressure
vv = visibility
rr = Quantités de précipitations

stations d'obs. à proximité